TimeAKST,TemperatureF,Dew PointF,Humidity,Sea Level PressureIn,VisibilityMPH,Wind Direction,Wind SpeedMPH,Gust SpeedMPH,PrecipitationIn,Events,Conditions,WindDirDegrees,DateUTC
12:16 AM,30.2,26.6,86,28.74,10.0,Calm,Calm,-,N/A,,Overcast,0,2013-02-10 09:16:00
12:36 AM,30.2,26.6,86,28.74,10.0,Calm,Calm,-,N/A,,Overcast,0,2013-02-10 09:36:00
12:56 AM,30.2,28.4,93,28.74,10.0,East,4.6,-,N/A,,Overcast,80,2013-02-10 09:56:00
1:16 AM,32.0,30.2,93,28.74,10.0,East,10.4,-,N/A,,Overcast,100,2013-02-10 10:16:00
1:36 AM,33.8,30.2,87,28.74,10.0,ESE,13.8,18.4,N/A,,Overcast,110,2013-02-10 10:36:00
1:56 AM,33.8,30.2,87,28.74,10.0,East,12.7,-,N/A,,Overcast,100,2013-02-10 10:56:00
2:16 AM,33.8,30.2,87,28.74,8.0,ESE,12.7,17.3,N/A,,Overcast,110,2013-02-10 11:16:00
2:36 AM,33.8,30.2,87,28.74,6.0,East,11.5,-,N/A,,Overcast,100,2013-02-10 11:36:00
2:56 AM,33.8,30.2,87,28.74,4.0,ESE,10.4,-,N/A,,Overcast,110,2013-02-10 11:56:00
3:16 AM,33.8,30.2,87,28.73,3.0,ESE,11.5,-,N/A,,Overcast,110,2013-02-10 12:16:00
3:36 AM,33.8,30.2,87,28.73,3.0,ESE,10.4,-,N/A,,Overcast,110,2013-02-10 12:36:00
3:56 AM,33.8,30.2,87,28.74,4.0,ESE,12.7,-,N/A,,Overcast,110,2013-02-10 12:56:00
4:16 AM,33.8,30.2,87,28.74,2.0,ESE,12.7,-,N/A,,Overcast,120,2013-02-10 13:16:00
4:36 AM,33.8,30.2,87,28.75,2.0,ESE,13.8,17.3,N/A,,Overcast,120,2013-02-10 13:36:00
4:56 AM,32.0,30.2,93,28.76,2.5,SE,8.1,-,N/A,,Overcast,130,2013-02-10 13:56:00
5:16 AM,32.0,30.2,93,28.78,1.2,South,5.8,-,N/A,,Overcast,170,2013-02-10 14:16:00
5:36 AM,28.4,23.0,80,28.81,1.8,WSW,11.5,19.6,N/A,,Overcast,240,2013-02-10 14:36:00
5:56 AM,24.8,19.4,80,28.84,0.8,SW,10.4,24.2,N/A,,Overcast,220,2013-02-10 14:56:00
6:16 AM,23.0,19.4,86,28.86,1.2,WSW,12.7,24.2,N/A,,Overcast,240,2013-02-10 15:16:00
6:36 AM,21.2,17.6,86,28.89,3.0,SW,15.0,25.3,N/A,,Overcast,230,2013-02-10 15:36:00
6:56 AM,19.4,14.0,80,28.91,3.0,SW,9.2,24.2,N/A,,Overcast,230,2013-02-10 15:56:00
7:16 AM,17.6,12.2,79,28.93,2.5,SW,12.7,24.2,N/A,,Overcast,220,2013-02-10 16:16:00
7:36 AM,15.8,10.4,79,28.96,1.8,SW,10.4,24.2,N/A,,Overcast,230,2013-02-10 16:36:00
7:56 AM,14.0,8.6,79,28.98,1.5,SW,13.8,23.0,N/A,,Overcast,230,2013-02-10 16:56:00
8:16 AM,12.2,6.8,79,29.01,1.8,SW,9.2,23.0,N/A,,Overcast,220,2013-02-10 17:16:00
8:36 AM,12.2,8.6,85,29.04,2.0,SSW,11.5,21.9,N/A,,Overcast,210,2013-02-10 17:36:00
8:56 AM,10.4,6.8,85,29.06,3.0,SW,10.4,27.6,N/A,,Overcast,230,2013-02-10 17:56:00
9:16 AM,10.4,5.0,79,29.08,1.5,SW,9.2,20.7,N/A,,Overcast,220,2013-02-10 18:16:00
9:36 AM,10.4,6.8,85,29.11,0.8,WSW,8.1,19.6,N/A,,Overcast,240,2013-02-10 18:36:00
9:56 AM,10.4,5.0,79,29.12,1.2,SW,16.1,28.8,N/A,,Overcast,220,2013-02-10 18:56:00
10:16 AM,8.6,6.8,92,29.15,1.5,SW,10.4,23.0,N/A,,Overcast,220,2013-02-10 19:16:00
10:36 AM,8.6,1.4,73,29.17,1.5,SW,9.2,23.0,N/A,,Overcast,230,2013-02-10 19:36:00
10:56 AM,8.6,3.2,79,29.19,1.5,WSW,12.7,23.0,N/A,,Overcast,240,2013-02-10 19:56:00
11:16 AM,8.6,1.4,73,29.21,1.0,SW,11.5,23.0,N/A,,Overcast,230,2013-02-10 20:16:00
11:36 AM,6.8,3.2,85,29.23,2.0,SW,11.5,20.7,N/A,,Overcast,230,2013-02-10 20:36:00
11:56 AM,6.8,1.4,79,29.25,1.2,WSW,15.0,24.2,N/A,,Overcast,240,2013-02-10 20:56:00
12:16 PM,6.8,3.2,85,29.27,2.0,WSW,8.1,17.3,N/A,,Overcast,240,2013-02-10 21:16:00
12:36 PM,6.8,-0.4,72,29.28,3.0,SW,9.2,16.1,N/A,,Overcast,220,2013-02-10 21:36:00
12:56 PM,6.8,3.2,85,29.29,2.5,WSW,8.1,-,N/A,,Overcast,250,2013-02-10 21:56:00
1:16 PM,6.8,-0.4,72,29.30,3.0,WSW,15.0,21.9,N/A,,Overcast,250,2013-02-10 22:16:00
1:36 PM,6.8,3.2,85,29.31,3.0,WSW,12.7,20.7,N/A,,Overcast,250,2013-02-10 22:36:00
1:56 PM,6.8,3.2,85,29.32,5.0,WSW,15.0,20.7,N/A,,Overcast,250,2013-02-10 22:56:00
2:16 PM,6.8,-0.4,72,29.34,5.0,WSW,15.0,23.0,N/A,,Overcast,250,2013-02-10 23:16:00
2:36 PM,6.8,1.4,79,29.37,5.0,WSW,4.6,19.6,N/A,,Overcast,240,2013-02-10 23:36:00
2:56 PM,6.8,-0.4,72,29.38,10.0,WSW,8.1,18.4,N/A,,Overcast,250,2013-02-10 23:56:00
3:16 PM,6.8,1.4,79,29.38,10.0,WSW,11.5,17.3,N/A,,Overcast,250,2013-02-11 00:16:00
3:36 PM,6.8,-0.4,72,29.40,10.0,West,10.4,17.3,N/A,,Overcast,260,2013-02-11 00:36:00
3:56 PM,6.8,-0.4,72,29.41,10.0,West,9.2,-,N/A,,Overcast,260,2013-02-11 00:56:00
4:16 PM,6.8,1.4,79,29.42,10.0,West,8.1,-,N/A,,Overcast,270,2013-02-11 01:16:00
4:36 PM,6.8,-0.4,72,29.43,10.0,WSW,8.1,19.6,N/A,,Overcast,250,2013-02-11 01:36:00
4:56 PM,5.0,1.4,85,29.44,10.0,West,10.4,17.3,N/A,,Overcast,260,2013-02-11 01:56:00
5:16 PM,5.0,-2.2,72,29.46,10.0,WSW,11.5,19.6,N/A,,Mostly Cloudy,250,2013-02-11 02:16:00
5:36 PM,5.0,1.4,85,29.47,10.0,West,10.4,16.1,N/A,,Overcast,260,2013-02-11 02:36:00
5:56 PM,5.0,-2.2,72,29.48,10.0,WSW,9.2,19.6,N/A,,Overcast,250,2013-02-11 02:56:00
6:16 PM,5.0,1.4,85,29.50,10.0,WSW,9.2,-,N/A,,Overcast,250,2013-02-11 03:16:00
6:36 PM,5.0,-0.4,78,29.51,10.0,West,5.8,17.3,N/A,,Overcast,260,2013-02-11 03:36:00
6:56 PM,3.2,-0.4,85,29.53,10.0,West,8.1,17.3,N/A,,Overcast,270,2013-02-11 03:56:00
7:16 PM,3.2,-2.2,78,29.54,10.0,West,8.1,-,N/A,,Overcast,280,2013-02-11 04:16:00
7:36 PM,3.2,-2.2,78,29.54,10.0,West,12.7,19.6,N/A,,Overcast,260,2013-02-11 04:36:00
7:56 PM,1.4,-4.0,78,29.56,10.0,West,9.2,-,N/A,,Overcast,260,2013-02-11 04:56:00
8:16 PM,1.4,-5.8,72,29.57,10.0,West,6.9,-,N/A,,Overcast,270,2013-02-11 05:16:00
8:36 PM,1.4,-2.2,85,29.58,10.0,West,8.1,-,N/A,,Overcast,260,2013-02-11 05:36:00
8:56 PM,1.4,-4.0,78,29.59,10.0,West,11.5,19.6,N/A,,Mostly Cloudy,270,2013-02-11 05:56:00
9:16 PM,1.4,-5.8,72,29.60,10.0,West,5.8,-,N/A,,Scattered Clouds,270,2013-02-11 06:16:00
9:36 PM,1.4,-4.0,78,29.61,10.0,West,8.1,19.6,N/A,,Clear,280,2013-02-11 06:36:00
9:56 PM,-0.4,-7.6,72,29.62,10.0,West,9.2,-,N/A,,Clear,270,2013-02-11 06:56:00
10:16 PM,-0.4,-5.8,78,29.63,10.0,West,8.1,18.4,N/A,,Clear,270,2013-02-11 07:16:00
10:36 PM,-2.2,-9.4,71,29.65,10.0,Calm,Calm,-,N/A,,Clear,0,2013-02-11 07:36:00
10:56 PM,-2.2,-7.6,78,29.65,10.0,West,3.5,-,N/A,,Clear,270,2013-02-11 07:56:00
11:16 PM,-2.2,-7.6,78,29.66,10.0,North,4.6,-,N/A,,Clear,360,2013-02-11 08:16:00
11:36 PM,-5.8,-9.4,84,29.66,10.0,Calm,Calm,-,N/A,,Clear,0,2013-02-11 08:36:00
11:56 PM,-7.6,-14.8,71,29.67,10.0,Calm,Calm,-,N/A,,Clear,0,2013-02-11 08:56:00